Time,TemperatureF,DewpointF,PressureIn,WindDirection,WindDirectionDegrees,WindSpeedMPH,WindSpeedGustMPH,Humidity,HourlyPrecipIn,Conditions,Clouds,dailyrainin,SoftwareType,DateUTC
2013-09-19 00:13:00,68.0,64.0,29.63,SSE,158,3.0,3.0,86,0.00,,,0.00,,2013-09-19 05:13:00,
2013-09-19 00:23:00,68.0,64.0,29.63,SSE,158,3.0,3.0,86,0.00,,,0.00,,2013-09-19 05:23:00,
2013-09-19 00:52:00,68.0,64.0,29.63,ESE,113,3.0,3.0,86,0.00,,,0.00,,2013-09-19 05:52:00,
2013-09-19 01:12:00,68.0,64.0,29.64,SW,234,1.0,1.0,86,0.00,,,0.00,,2013-09-19 06:12:00,
2013-09-19 01:22:00,68.0,64.0,29.64,SW,234,1.0,1.0,86,0.00,,,0.00,,2013-09-19 06:22:00,
2013-09-19 01:52:00,68.0,64.0,29.66,SSE,158,1.0,1.0,86,0.00,,,0.00,,2013-09-19 06:52:00,
2013-09-19 02:11:00,68.0,64.0,29.65,WSW,248,1.0,2.0,86,0.00,,,0.00,,2013-09-19 07:11:00,
2013-09-19 02:22:00,68.0,64.0,29.65,WSW,248,1.0,2.0,86,0.00,,,0.00,,2013-09-19 07:22:00,
2013-09-19 02:52:00,68.0,64.0,29.66,WSW,248,0.0,0.0,86,0.00,,,0.00,,2013-09-19 07:52:00,
2013-09-19 03:12:00,68.0,64.0,29.65,SE,135,1.0,1.0,86,0.01,,,0.01,,2013-09-19 08:12:00,
2013-09-19 03:22:00,68.0,64.0,29.65,SE,135,1.0,1.0,86,0.01,,,0.01,,2013-09-19 08:22:00,
2013-09-19 03:52:00,68.0,64.0,29.65,ESE,113,2.0,3.0,86,0.01,,,0.01,,2013-09-19 08:52:00,
2013-09-19 04:11:00,68.0,64.0,29.59,East,92,3.0,3.0,86,0.00,,,0.01,,2013-09-19 09:11:00,
2013-09-19 04:21:00,68.0,64.0,29.59,East,92,3.0,3.0,86,0.00,,,0.01,,2013-09-19 09:21:00,
2013-09-19 04:53:00,68.0,64.0,29.60,SW,225,1.0,1.0,86,0.00,,,0.01,,2013-09-19 09:53:00,
2013-09-19 05:12:00,67.0,63.0,29.60,SSE,158,0.0,0.0,86,0.00,,,0.01,,2013-09-19 10:12:00,
2013-09-19 05:23:00,67.0,63.0,29.60,SSE,158,0.0,0.0,86,0.00,,,0.01,,2013-09-19 10:23:00,
2013-09-19 05:52:00,67.0,63.0,29.61,SE,137,1.0,1.0,86,0.00,,,0.01,,2013-09-19 10:52:00,
2013-09-19 06:12:00,67.0,63.0,29.61,SSE,158,1.0,1.0,86,0.00,,,0.01,,2013-09-19 11:12:00,
2013-09-19 06:22:00,67.0,63.0,29.61,SSE,158,1.0,1.0,86,0.00,,,0.01,,2013-09-19 11:22:00,
2013-09-19 06:53:00,67.0,63.0,29.61,SE,135,0.0,0.0,87,0.00,,,0.01,,2013-09-19 11:53:00,
2013-09-19 07:11:00,67.0,63.0,29.62,SE,135,0.0,0.0,87,0.00,,,0.01,,2013-09-19 12:11:00,
2013-09-19 07:21:00,67.0,63.0,29.62,SE,135,0.0,0.0,87,0.00,,,0.01,,2013-09-19 12:21:00,
2013-09-19 07:52:00,67.0,63.0,29.62,SE,135,0.0,0.0,87,0.00,,,0.01,,2013-09-19 12:52:00,
2013-09-19 08:22:00,67.0,63.0,29.62,South,180,0.0,0.0,87,0.00,,,0.01,,2013-09-19 13:22:00,
2013-09-19 08:52:00,67.0,63.0,29.64,South,180,0.0,0.0,87,0.00,,,0.01,,2013-09-19 13:52:00,
2013-09-19 09:12:00,67.0,63.0,29.62,SSE,158,0.0,0.0,87,0.00,,,0.01,,2013-09-19 14:12:00,
2013-09-19 09:22:00,67.0,63.0,29.62,SSE,158,0.0,0.0,87,0.00,,,0.01,,2013-09-19 14:22:00,
2013-09-19 09:52:00,67.0,63.0,29.63,West,270,0.0,0.0,87,0.00,,,0.01,,2013-09-19 14:52:00,
2013-09-19 10:11:00,67.0,63.0,29.62,SSW,203,0.0,0.0,87,0.00,,,0.01,,2013-09-19 15:11:00,
2013-09-19 10:22:00,67.0,63.0,29.62,SSW,203,0.0,0.0,87,0.00,,,0.01,,2013-09-19 15:22:00,
2013-09-19 10:54:00,67.0,63.0,29.64,SW,225,0.0,0.0,87,0.00,,,0.01,,2013-09-19 15:54:00,
2013-09-19 11:03:00,67.0,63.0,29.64,SW,225,0.0,0.0,87,0.00,,,0.01,,2013-09-19 16:03:00,
2013-09-19 11:24:00,67.0,63.0,29.65,SW,225,0.0,0.0,87,0.00,,,0.01,,2013-09-19 16:24:00,
2013-09-19 11:53:00,67.0,63.0,29.68,ESE,113,0.0,0.0,87,0.00,,,0.01,,2013-09-19 16:53:00,
2013-09-19 12:12:00,67.0,63.0,29.67,ESE,113,0.0,0.0,87,0.00,,,0.01,,2013-09-19 17:12:00,
2013-09-19 12:23:00,67.0,63.0,29.67,ESE,113,0.0,0.0,87,0.00,,,0.01,,2013-09-19 17:23:00,
2013-09-19 12:53:00,67.0,63.0,29.68,ESE,113,0.0,0.0,87,0.00,,,0.01,,2013-09-19 17:53:00,
2013-09-19 13:11:00,67.0,63.0,29.68,ESE,113,0.0,0.0,87,0.02,,,0.03,,2013-09-19 18:11:00,
2013-09-19 13:22:00,67.0,63.0,29.68,ESE,113,0.0,0.0,87,0.02,,,0.03,,2013-09-19 18:22:00,
2013-09-19 13:52:00,67.0,63.0,29.68,South,180,0.0,0.0,87,0.04,,,0.06,,2013-09-19 18:52:00,
2013-09-19 14:12:00,68.0,64.0,29.66,NNW,338,0.0,0.0,87,0.04,,,0.07,,2013-09-19 19:12:00,
2013-09-19 14:22:00,68.0,64.0,29.66,NNW,338,0.0,0.0,87,0.04,,,0.07,,2013-09-19 19:22:00,
2013-09-19 14:52:00,68.0,64.0,29.66,WSW,248,0.0,0.0,87,0.01,,,0.07,,2013-09-19 19:52:00,
2013-09-19 15:12:00,68.0,64.0,29.66,WNW,300,0.0,1.0,87,0.00,,,0.07,,2013-09-19 20:12:00,
2013-09-19 15:22:00,68.0,64.0,29.66,WNW,300,0.0,1.0,87,0.00,,,0.07,,2013-09-19 20:22:00,
2013-09-19 15:42:00,67.0,63.0,29.67,West,266,1.0,2.0,87,0.00,,,0.07,,2013-09-19 20:42:00,
2013-09-19 15:52:00,67.0,63.0,29.67,West,266,1.0,2.0,87,0.00,,,0.07,,2013-09-19 20:52:00,
2013-09-19 16:12:00,67.0,63.0,29.67,NW,324,1.0,1.0,87,0.00,,,0.07,,2013-09-19 21:12:00,
2013-09-19 16:22:00,67.0,63.0,29.67,NW,324,1.0,1.0,87,0.00,,,0.07,,2013-09-19 21:22:00,
2013-09-19 16:55:00,67.0,63.0,29.67,NW,315,0.0,0.0,87,0.00,,,0.07,,2013-09-19 21:55:00,
2013-09-19 17:14:00,67.0,63.0,29.69,WNW,303,1.0,1.0,87,0.00,,,0.07,,2013-09-19 22:14:00,
2013-09-19 17:24:00,67.0,63.0,29.69,WNW,303,1.0,1.0,87,0.00,,,0.07,,2013-09-19 22:24:00,
2013-09-19 17:53:00,66.0,62.0,29.69,SW,225,1.0,1.0,87,0.00,,,0.07,,2013-09-19 22:53:00,
2013-09-19 18:12:00,66.0,62.0,29.69,SW,225,0.0,0.0,87,0.00,,,0.07,,2013-09-19 23:12:00,
2013-09-19 18:22:00,66.0,62.0,29.69,SW,225,0.0,0.0,87,0.00,,,0.07,,2013-09-19 23:22:00,
2013-09-19 18:43:00,65.0,61.0,29.70,ENE,60,0.0,0.0,86,0.00,,,0.07,,2013-09-19 23:43:00,
2013-09-19 18:53:00,65.0,61.0,29.70,ENE,60,0.0,0.0,86,0.00,,,0.07,,2013-09-19 23:53:00,
2013-09-19 19:22:00,65.0,60.0,29.71,South,180,0.0,0.0,85,0.00,,,0.07,,2013-09-20 00:22:00,
2013-09-19 19:52:00,64.0,59.0,29.73,South,180,0.0,0.0,85,0.00,,,0.07,,2013-09-20 00:52:00,
2013-09-19 20:12:00,64.0,59.0,29.72,North,0,0.0,0.0,85,0.00,,,0.07,,2013-09-20 01:12:00,
2013-09-19 20:22:00,64.0,59.0,29.72,North,0,0.0,0.0,85,0.00,,,0.07,,2013-09-20 01:22:00,
2013-09-19 20:52:00,63.0,58.0,29.73,SSW,203,0.0,0.0,85,0.00,,,0.07,,2013-09-20 01:52:00,
2013-09-19 21:12:00,62.0,57.0,29.73,SSW,203,0.0,0.0,85,0.00,,,0.07,,2013-09-20 02:12:00,
2013-09-19 21:22:00,62.0,57.0,29.73,SSW,203,0.0,0.0,85,0.00,,,0.07,,2013-09-20 02:22:00,
2013-09-19 21:53:00,62.0,57.0,29.74,SW,225,0.0,0.0,85,0.00,,,0.07,,2013-09-20 02:53:00,
2013-09-19 22:12:00,61.0,56.0,29.73,SW,225,0.0,0.0,85,0.00,,,0.07,,2013-09-20 03:12:00,
2013-09-19 22:23:00,61.0,56.0,29.73,SW,225,0.0,0.0,85,0.00,,,0.07,,2013-09-20 03:23:00,
2013-09-19 22:56:00,60.0,55.0,29.74,West,270,0.0,0.0,85,0.00,,,0.07,,2013-09-20 03:56:00,
2013-09-19 23:14:00,60.0,55.0,29.74,WNW,293,0.0,0.0,85,0.00,,,0.07,,2013-09-20 04:14:00,
2013-09-19 23:24:00,60.0,55.0,29.74,WNW,293,0.0,0.0,85,0.00,,,0.07,,2013-09-20 04:24:00,
2013-09-19 23:54:00,59.0,55.0,29.74,NNW,338,0.0,0.0,86,0.00,,,0.07,,2013-09-20 04:54:00,